TimePDT,TemperatureF,Dew PointF,Humidity,Sea Level PressureIn,VisibilityMPH,Wind Direction,Wind SpeedMPH,Gust SpeedMPH,PrecipitationIn,Events,Conditions,WindDirDegrees,DateUTC
12:56 AM,52.0,46.9,83,30.02,10.0,North,8.1,-,N/A,,Clear,350,2013-08-03 07:56:00
1:56 AM,54.0,45.0,72,30.01,10.0,NNE,8.1,-,N/A,,Clear,20,2013-08-03 08:56:00
2:56 AM,53.1,46.0,77,30.00,10.0,North,6.9,-,N/A,,Clear,10,2013-08-03 09:56:00
3:56 AM,53.1,46.9,80,29.99,10.0,NNE,6.9,-,N/A,,Clear,20,2013-08-03 10:56:00
4:56 AM,53.1,46.9,80,29.99,10.0,NNE,8.1,-,N/A,,Clear,20,2013-08-03 11:56:00
5:56 AM,52.0,48.0,86,29.99,10.0,NNE,10.4,-,N/A,,Clear,20,2013-08-03 12:56:00
6:56 AM,55.9,46.0,69,30.00,10.0,East,4.6,-,N/A,,Clear,90,2013-08-03 13:56:00
7:56 AM,57.9,48.0,70,30.01,10.0,East,3.5,-,N/A,,Clear,100,2013-08-03 14:56:00
8:56 AM,59.0,48.9,69,30.02,9.0,Calm,Calm,-,N/A,,Clear,0,2013-08-03 15:56:00
9:56 AM,63.0,50.0,63,30.02,10.0,Variable,3.5,-,N/A,,Clear,0,2013-08-03 16:56:00
10:56 AM,66.0,51.1,59,30.01,4.0,East,4.6,-,N/A,,Haze,100,2013-08-03 17:56:00
11:56 AM,70.0,52.0,53,30.01,6.0,Calm,Calm,-,N/A,,Haze,0,2013-08-03 18:56:00
12:56 PM,70.0,52.0,53,30.01,4.0,North,4.6,-,N/A,,Haze,350,2013-08-03 19:56:00
1:32 PM,69.8,51.8,53,30.11,2.5,Calm,Calm,-,N/A,,Haze,0,2013-08-03 20:32:00
1:56 PM,73.0,52.0,48,29.98,2.5,Calm,Calm,-,N/A,,Haze,0,2013-08-03 20:56:00
2:22 PM,75.2,51.8,44,30.10,4.0,Variable,5.8,-,N/A,,Haze,0,2013-08-03 21:22:00
2:56 PM,75.9,50.0,40,29.96,6.0,Variable,3.5,-,N/A,,Haze,0,2013-08-03 21:56:00
3:56 PM,77.0,46.9,34,29.95,10.0,Calm,Calm,-,N/A,,Clear,0,2013-08-03 22:56:00
4:56 PM,77.0,45.0,32,29.94,10.0,Variable,3.5,-,N/A,,Clear,0,2013-08-03 23:56:00
5:56 PM,73.0,45.0,37,29.95,10.0,Variable,5.8,-,N/A,,Clear,0,2013-08-04 00:56:00
6:56 PM,69.1,45.0,42,29.94,10.0,North,6.9,-,N/A,,Partly Cloudy,350,2013-08-04 01:56:00
7:56 PM,66.0,46.0,48,29.95,10.0,North,9.2,-,N/A,,Overcast,350,2013-08-04 02:56:00
8:56 PM,63.0,43.0,48,29.96,10.0,North,9.2,-,N/A,,Overcast,350,2013-08-04 03:56:00
9:56 PM,63.0,39.0,41,29.96,10.0,North,10.4,-,N/A,,Mostly Cloudy,360,2013-08-04 04:56:00
10:56 PM,61.0,44.1,54,29.96,10.0,North,11.5,-,N/A,,Overcast,350,2013-08-04 05:56:00
11:56 PM,60.1,45.0,57,29.95,10.0,North,11.5,-,N/A,,Overcast,350,2013-08-04 06:56:00